Weather History for Tacoma Narrows, WA

Change the Weather History Date:

Sunday, April 13, 2014

  Actual Average Record
Temperature  
Mean Temperature 57 °F -  
Max Temperature 68 °F 55 °F 68 °F (2014)
Min Temperature 46 °F 41 °F 35 °F (2009)
Degree Days  
Heating Degree Days 8    
Growing Degree Days 7 (Base 50)    
Moisture  
Dew Point 35 °F    
Average Humidity 48    
Maximum Humidity 79    
Minimum Humidity 18    
Precipitation  
Precipitation 0.00 in - - ()
Sea Level Pressure  
Sea Level Pressure 30.24 in    
Wind  
Wind Speed 5 mph (NNE)    
Max Wind Speed 10 mph    
Max Gust Speed -    
Visibility 10 miles    
Events      
Averages and records for this station are not official NWS values.
T = Trace of Precipitation, MM = Missing Value Source: NWS Daily Summary

Daily Weather History Graph

Daily Weather History Graph

Search for Another Location

Airport:

Trip Planner

Search our weather history database for the weather conditions in past years. The results will help you decide how hot, cold, wet, or windy it might be!

Date:

Astronomy

Apr. 13, 2014 Rise Set
Actual Time 6:25 AM PDT 7:56 PM PDT
Civil Twilight 5:53 AM PDT 8:28 PM PDT
Nautical Twilight 5:15 AM PDT 9:07 PM PDT
Astronomical Twilight 4:33 AM PDT 9:49 PM PDT
Moon 6:35 PM PDT (4/13) 5:33 AM PDT (4/13)
Length of Visible Light 14h 35m
Length of Day
13h 31m
Waxing Gibbous, 97% of the Moon is Illuminated
Apr 13
Waxing Gibbous
Apr 15
Full
Apr 22
Last Quarter
Apr 28
New
May 6
First Quarter

Hourly Weather History & Observations

Time (PDT) Temp. Windchill Dew Point Humidity Pressure Visibility Wind Dir Wind Speed Gust Speed Precip Events Conditions
12:53 AM 51.1 °F - 37.0 °F 59% 30.21 in 10.0 mi Calm Calm - N/A   Clear
1:53 AM 48.9 °F - 37.9 °F 66% 30.22 in 10.0 mi NE 3.5 mph - N/A   Clear
2:53 AM 50.0 °F - 37.0 °F 61% 30.21 in 10.0 mi NNE 6.9 mph - N/A   Clear
3:53 AM 48.9 °F - 37.0 °F 64% 30.23 in 10.0 mi Calm Calm - N/A   Clear
4:53 AM 48.0 °F - 37.0 °F 66% 30.22 in 10.0 mi NNE 4.6 mph - N/A   Clear
5:53 AM 46.9 °F - 39.0 °F 74% 30.25 in 10.0 mi Calm Calm - N/A   Clear
6:53 AM 46.0 °F 44.8 °F 39.9 °F 79% 30.27 in 10.0 mi NE 3.5 mph - N/A   Clear
7:53 AM 48.0 °F - 39.9 °F 74% 30.28 in 10.0 mi NE 3.5 mph - N/A   Clear
8:53 AM 50.0 °F - 42.1 °F 74% 30.30 in 10.0 mi NNW 4.6 mph - N/A   Clear
9:53 AM 53.1 °F - 41.0 °F 64% 30.30 in 10.0 mi North 9.2 mph - N/A   Clear
10:53 AM 55.9 °F - 41.0 °F 57% 30.31 in 10.0 mi North 8.1 mph - N/A   Clear
11:53 AM 59.0 °F - 39.0 °F 48% 30.31 in 10.0 mi North 8.1 mph - N/A   Unknown
12:53 PM 62.1 °F - 35.1 °F 37% 30.30 in 10.0 mi North 9.2 mph - N/A   Clear
1:53 PM 64.0 °F - 36.0 °F 35% 30.29 in 10.0 mi North 9.2 mph - N/A   Clear
2:53 PM 66.9 °F - 32.0 °F 27% 30.27 in 10.0 mi NNE 8.1 mph - N/A   Clear
3:53 PM 66.9 °F - 30.9 °F 26% 30.25 in 10.0 mi NNW 10.4 mph - N/A   Clear
4:53 PM 68.0 °F - 23.0 °F 18% 30.23 in 10.0 mi NNE 6.9 mph - N/A   Clear
5:53 PM 66.9 °F - 25.0 °F 21% 30.21 in 10.0 mi NNE 8.1 mph - N/A   Clear
6:53 PM 66.0 °F - 26.1 °F 22% 30.20 in 10.0 mi North 9.2 mph - N/A   Clear
7:53 PM 62.1 °F - 30.0 °F 30% 30.19 in 10.0 mi North 9.2 mph - N/A   Clear
8:53 PM 59.0 °F - 30.9 °F 35% 30.20 in 10.0 mi North 9.2 mph - N/A   Clear
9:53 PM 59.0 °F - 30.9 °F 35% 30.20 in 10.0 mi North 9.2 mph - N/A   Clear
10:53 PM 57.0 °F - 30.9 °F 37% 30.19 in 10.0 mi North 10.4 mph - N/A   Clear
11:53 PM 54.0 °F - 32.0 °F 43% 30.17 in 10.0 mi NE 3.5 mph - N/A   Clear